| time (UTC) | temp F | wind direction | speed MPH | gust MPH | rain 1hr in | rain 24hr in | rain mn in | humidity % | barometer mb |
| 20260506040039 | 64 | 0 | 1.0 | 4.0 | 0.00 | 0.00 | 0.00 | 58 | 1009.5 |
| 20260506034534 | 65 | 140 | 0.0 | 4.0 | 0.00 | 0.00 | 0.00 | 59 | 1008.9 |
| 20260506033035 | 65 | 119 | 0.0 | 5.0 | 0.00 | 0.00 | 0.00 | 57 | 1008.4 |
| 20260506031538 | 66 | 183 | 0.0 | 3.0 | 0.00 | 0.00 | 0.00 | 57 | 1008.5 |
| 20260506030035 | 67 | 175 | 1.0 | 5.0 | 0.00 | 0.00 | 0.00 | 56 | 1008.1 |
| 20260506024536 | 68 | 134 | 0.0 | 3.0 | 0.00 | 0.00 | 0.00 | 56 | 1007.9 |
| 20260506023046 | 68 | 148 | 0.0 | 2.0 | 0.00 | 0.00 | 0.00 | 56 | 1007.6 |
| 20260506021536 | 68 | 0 | 0.0 | 2.0 | 0.00 | 0.00 | 0.00 | 55 | 1007.1 |
| 20260506020034 | 68 | 0 | 0.0 | 2.0 | 0.00 | 0.00 | 0.00 | 54 | 1007.2 |
| 20260506014533 | 69 | 0 | 0.0 | 2.0 | 0.00 | 0.00 | 0.00 | 53 | 1006.4 |
| 20260506013037 | 70 | 0 | 0.0 | 5.0 | 0.00 | 0.00 | 0.00 | 53 | 1006.3 |
| 20260506011535 | 71 | 0 | 0.0 | 2.0 | 0.00 | 0.00 | 0.00 | 53 | 1006.2 |
| 20260506010047 | 71 | 161 | 0.0 | 7.0 | 0.00 | 0.00 | 0.00 | 52 | 1006.0 |
| 20260506004543 | 72 | 0 | 0.0 | 3.0 | 0.00 | 0.00 | 0.00 | 52 | 1005.5 |
| 20260506003038 | 73 | 109 | 1.0 | 4.0 | 0.00 | 0.00 | 0.00 | 51 | 1005.1 |
| 20260506001544 | 74 | 0 | 1.0 | 4.0 | 0.00 | 0.00 | 0.00 | 50 | 1004.9 |
| 20260506000034 | 76 | 138 | 1.0 | 4.0 | 0.00 | 0.00 | 0.00 | 49 | 1004.9 |
| 20260505234556 | 77 | 85 | 1.0 | 3.0 | 0.00 | 0.00 | 0.00 | 47 | 1004.7 |
| 20260505233039 | 79 | 118 | 0.0 | 5.0 | 0.00 | 0.00 | 0.00 | 46 | 1004.6 |
| 20260505231534 | 80 | 136 | 1.0 | 5.0 | 0.00 | 0.00 | 0.00 | 45 | 1004.5 |
| 20260505230034 | 82 | 122 | 0.0 | 4.0 | 0.00 | 0.00 | 0.00 | 44 | 1004.4 |
| 20260505224539 | 83 | 158 | 0.0 | 2.0 | 0.00 | 0.00 | 0.00 | 42 | 1003.9 |
| 20260505223040 | 85 | 0 | 0.0 | 3.0 | 0.00 | 0.00 | 0.00 | 39 | 1003.9 |
| 20260505221532 | 86 | 0 | 0.0 | 3.0 | 0.00 | 0.00 | 0.00 | 37 | 1003.6 |
| 20260505220036 | 88 | 0 | 0.0 | 3.0 | 0.00 | 0.00 | 0.00 | 35 | 1003.3 |
| 20260505214557 | 90 | 0 | 0.0 | 3.0 | 0.00 | 0.00 | 0.00 | 33 | 1003.6 |
| 20260505213036 | 94 | 126 | 0.0 | 2.0 | 0.00 | 0.00 | 0.00 | 33 | 1003.4 |
| 20260505211535 | 94 | 122 | 0.0 | 3.0 | 0.00 | 0.00 | 0.00 | 30 | 1003.4 |
| 20260505210034 | 93 | 316 | 0.0 | 3.0 | 0.00 | 0.00 | 0.00 | 34 | 1003.5 |
| 20260505204531 | 93 | 125 | 1.0 | 3.0 | 0.00 | 0.00 | 0.00 | 32 | 1003.5 |
| 20260505203040 | 92 | 197 | 1.0 | 4.0 | 0.00 | 0.00 | 0.00 | 34 | 1003.7 |
| 20260505201537 | 92 | 112 | 1.0 | 5.0 | 0.00 | 0.00 | 0.00 | 37 | 1003.9 |
| 20260505200034 | 91 | 95 | 1.0 | 4.0 | 0.00 | 0.00 | 0.00 | 37 | 1003.9 |
| 20260505194544 | 90 | 124 | 0.0 | 4.0 | 0.00 | 0.00 | 0.00 | 40 | 1004.0 |
| 20260505193034 | 89 | 119 | 2.0 | 9.0 | 0.00 | 0.00 | 0.00 | 41 | 1004.2 |
| 20260505191538 | 88 | 98 | 1.0 | 5.0 | 0.00 | 0.00 | 0.00 | 45 | 1004.0 |
| 20260505190031 | 86 | 99 | 2.0 | 6.0 | 0.00 | 0.00 | 0.00 | 45 | 1004.2 |
| 20260505184538 | 85 | 105 | 1.0 | 6.0 | 0.00 | 0.00 | 0.00 | 48 | 1004.3 |
| 20260505183038 | 84 | 110 | 1.0 | 4.0 | 0.00 | 0.00 | 0.00 | 49 | 1004.4 |
| 20260505181537 | 83 | 8 | 2.0 | 11.0 | 0.00 | 0.00 | 0.00 | 49 | 1004.3 |
| 20260505180057 | 84 | 114 | 1.0 | 5.0 | 0.00 | 0.00 | 0.00 | 49 | 1004.5 |
| 20260505174556 | 83 | 19 | 2.0 | 6.0 | 0.00 | 0.00 | 0.00 | 50 | 1004.5 |
| 20260505173037 | 82 | 76 | 1.0 | 7.0 | 0.00 | 0.00 | 0.00 | 51 | 1004.3 |
| 20260505171537 | 82 | 72 | 3.0 | 11.0 | 0.00 | 0.00 | 0.00 | 50 | 1004.4 |
| 20260505170037 | 82 | 49 | 2.0 | 5.0 | 0.00 | 0.00 | 0.00 | 52 | 1004.5 |
| 20260505164535 | 80 | 31 | 1.0 | 8.0 | 0.00 | 0.00 | 0.00 | 54 | 1004.5 |
| 20260505163035 | 80 | 354 | 3.0 | 11.0 | 0.00 | 0.00 | 0.00 | 54 | 1004.4 |
| 20260505161537 | 79 | 120 | 3.0 | 9.0 | 0.00 | 0.00 | 0.00 | 54 | 1004.3 |
| 20260505153036 | 77 | 121 | 2.0 | 12.0 | 0.00 | 0.00 | 0.00 | 58 | 1004.2 |
| 20260505151535 | 77 | 21 | 2.0 | 7.0 | 0.00 | 0.00 | 0.00 | 58 | 1004.0 |
| 20260505124538 | 70 | 48 | 0.0 | 4.0 | 0.00 | 0.00 | 0.00 | 67 | 1003.7 |
| 20260505123037 | 70 | 115 | 0.0 | 4.0 | 0.00 | 0.00 | 0.00 | 68 | 1003.5 |
| 20260505121535 | 70 | 107 | 0.0 | 11.0 | 0.00 | 0.00 | 0.00 | 68 | 1003.4 |
| 20260505120036 | 70 | 0 | 0.0 | 6.0 | 0.00 | 0.00 | 0.00 | 68 | 1003.4 |
| 20260505114537 | 70 | 139 | 0.0 | 5.0 | 0.00 | 0.00 | 0.00 | 67 | 1003.2 |
| 20260505113036 | 70 | 0 | 1.0 | 5.0 | 0.00 | 0.00 | 0.00 | 67 | 1003.0 |
| 20260505111537 | 70 | 113 | 0.0 | 5.0 | 0.00 | 0.00 | 0.00 | 67 | 1003.0 |
| 20260505101535 | 70 | 24 | 1.0 | 11.0 | 0.00 | 0.00 | 0.00 | 66 | 1002.9 |
| 20260505100035 | 71 | 89 | 0.0 | 10.0 | 0.00 | 0.00 | 0.00 | 65 | 1003.1 |
| 20260505094534 | 71 | 155 | 1.0 | 8.0 | 0.00 | 0.00 | 0.00 | 65 | 1002.9 |
| 20260505093040 | 71 | 93 | 1.0 | 10.0 | 0.00 | 0.00 | 0.00 | 64 | 1003.2 |
| 20260505091543 | 72 | 32 | 1.0 | 15.0 | 0.00 | 0.00 | 0.00 | 63 | 1003.3 |
| 20260505090034 | 72 | 266 | 3.0 | 10.0 | 0.00 | 0.00 | 0.00 | 63 | 1003.5 |
| 20260505084535 | 72 | 68 | 3.0 | 13.0 | 0.00 | 0.00 | 0.00 | 62 | 1003.4 |
| 20260505083035 | 72 | 108 | 3.0 | 13.0 | 0.00 | 0.00 | 0.00 | 62 | 1003.6 |
| 20260505081539 | 73 | 18 | 4.0 | 11.0 | 0.00 | 0.00 | 0.00 | 61 | 1003.4 |
| 20260505080037 | 73 | 0 | 4.0 | 9.0 | 0.00 | 0.00 | 0.00 | 60 | 1003.6 |
| 20260505074537 | 73 | 82 | 2.0 | 9.0 | 0.00 | 0.00 | 0.00 | 59 | 1003.6 |
| 20260505073034 | 73 | 140 | 3.0 | 13.0 | 0.00 | 0.00 | 0.00 | 58 | 1004.0 |
| 20260505071551 | 74 | 82 | 3.0 | 10.0 | 0.00 | 0.00 | 0.00 | 57 | 1004.2 |
| 20260505070038 | 74 | 27 | 3.0 | 13.0 | 0.00 | 0.00 | 0.00 | 57 | 1004.4 |
| 20260505064536 | 74 | 86 | 2.0 | 9.0 | 0.00 | 0.00 | 0.00 | 56 | 1004.7 |
| 20260505063032 | 74 | 25 | 3.0 | 13.0 | 0.00 | 0.00 | 0.00 | 55 | 1004.7 |
| 20260505061556 | 74 | 63 | 4.0 | 10.0 | 0.00 | 0.00 | 0.00 | 54 | 1004.8 |
| 20260505060035 | 74 | 27 | 2.0 | 8.0 | 0.00 | 0.00 | 0.00 | 54 | 1004.8 |
| 20260505054535 | 75 | 108 | 2.0 | 8.0 | 0.00 | 0.00 | 0.00 | 54 | 1004.7 |
| 20260505053041 | 74 | 94 | 3.0 | 9.0 | 0.00 | 0.00 | 0.00 | 54 | 1004.7 |
| 20260505051555 | 74 | 25 | 2.0 | 12.0 | 0.00 | 0.00 | 0.00 | 54 | 1004.8 |
| 20260505041540 | 75 | 1 | 3.0 | 12.0 | 0.00 | 0.00 | 0.00 | 54 | 1005.0 |